Bolton Field, OH

7:35 AM EDT on March 27, 2017 (GMT -0400)
Bolton

Weather History for KTZR - February, 2014

Change the Weather History Date:

Sunday, February 23, 2014

  Actual Average Record
Temperature  
Mean Temperature 31 °F -  
Max Temperature 38 °F 41 °F 70 °F (2017)
Min Temperature 24 °F 27 °F 5 °F (2015)
Degree Days  
Heating Degree Days 34    
Moisture  
Dew Point 25 °F    
Average Humidity 79    
Maximum Humidity 100    
Minimum Humidity 52    
Precipitation  
Precipitation 0.00 in - - ()
Sea Level Pressure  
Sea Level Pressure 30.07 in    
Wind  
Wind Speed 7 mph (WNW)    
Max Wind Speed 15 mph    
Max Gust Speed -    
Visibility 10 miles    
Events      
Averages and records for this station are not official NWS values.
T = Trace of Precipitation, MM = Missing Value Source: NWS Daily Summary

Daily Weather History Graph

Daily Weather History Graph

Search for Another Location

Airport or City:

Trip Planner

Search our weather history database for the weather conditions in past years. The results will help you decide how hot, cold, wet, or windy it might be!

Date:

Astronomy

Feb. 23, 2014 Rise Set
Actual Time 7:14 AM EST 6:17 PM EST
Civil Twilight 6:47 AM EST 6:45 PM EST
Nautical Twilight 6:15 AM EST 7:16 PM EST
Astronomical Twilight 5:44 AM EST 7:47 PM EST
Moon 2:11 AM EST (2/23) 12:19 PM EST (2/23)
Length of Visible Light 11h 58m
Length of Day
11h 03m
Last Quarter, 39% of the Moon is Illuminated
Feb 23
Last Quarter
Mar 1
New
Mar 8
First Quarter
Mar 16
Full
Mar 23
Last Quarter

Hourly Weather History & Observations

Time (EST) Temp. Windchill Dew Point Humidity Pressure Visibility Wind Dir Wind Speed Gust Speed Precip Events Conditions
12:15 AM 36.0 °F 29.0 °F 32.0 °F 86% 30.03 in 10.0 mi North 9.2 mph - N/A   Mostly Cloudy
12:35 AM 35.6 °F 30.7 °F 32.0 °F 87% 30.03 in 10.0 mi North 5.8 mph - N/A   Scattered Clouds
12:55 AM 34.7 °F 29.6 °F 31.8 °F 89% 30.03 in 10.0 mi North 5.8 mph - N/A   Clear
1:15 AM 34.5 °F - 31.8 °F 90% 30.03 in 10.0 mi North - - N/A   Clear
1:35 AM 34.2 °F - 32.0 °F 92% 30.04 in 10.0 mi North - - N/A   Mostly Cloudy
1:55 AM 33.8 °F - 31.6 °F 92% 30.04 in 10.0 mi North - - N/A   Overcast
2:15 AM 34.7 °F - 32.0 °F 90% 30.04 in 10.0 mi North - - N/A   Overcast
2:35 AM 34.2 °F - 31.8 °F 91% 30.04 in 10.0 mi North - - N/A   Overcast
2:55 AM 33.8 °F - 32.0 °F 93% 30.05 in 10.0 mi North - - N/A   Overcast
3:15 AM 34.9 °F - 32.0 °F 89% 30.04 in 10.0 mi North - - N/A   Overcast
3:35 AM 33.1 °F 30.0 °F 31.3 °F 93% 30.02 in 10.0 mi East 3.5 mph - N/A   Mostly Cloudy
3:55 AM 32.7 °F - 31.3 °F 94% 30.03 in 10.0 mi North - - N/A   Mostly Cloudy
4:15 AM 32.0 °F - 30.6 °F 94% 30.03 in 10.0 mi Calm Calm - N/A   Scattered Clouds
4:35 AM 32.0 °F - 30.7 °F 95% 30.03 in 10.0 mi North - - N/A   Scattered Clouds
4:55 AM 32.0 °F - 31.5 °F 98% 30.02 in 10.0 mi North - - N/A   Scattered Clouds
5:15 AM 32.4 °F - 31.5 °F 96% 30.02 in 10.0 mi North - - N/A   Scattered Clouds
5:35 AM 31.8 °F - 30.9 °F 96% 30.03 in 10.0 mi Calm Calm - N/A   Mostly Cloudy
5:55 AM 32.2 °F - 31.6 °F 98% 30.04 in 10.0 mi North - - N/A   Overcast
6:15 AM 32.0 °F - 30.9 °F 96% 30.05 in 10.0 mi North - - N/A   Overcast
7:33 AM 32.0 °F - 30.2 °F 93% 30.05 in 10.0 mi Calm Calm - N/A   Clear
7:50 AM 32.0 °F 28.7 °F 32.0 °F 100% 30.03 in 10.0 mi SSE 3.5 mph - N/A   Overcast
8:50 AM 33.8 °F - 32.0 °F 93% 30.06 in 10.0 mi Calm Calm - N/A   Overcast
9:50 AM 35.6 °F 29.2 °F 33.8 °F 93% 30.10 in 10.0 mi WSW 8.1 mph - N/A   Overcast
10:50 AM 33.8 °F 28.6 °F 30.2 °F 87% 30.10 in 10.0 mi West 5.8 mph - N/A   Overcast
11:50 AM 35.6 °F 29.2 °F 28.4 °F 75% 30.08 in 10.0 mi West 8.1 mph - N/A   Overcast
12:58 PM 35.6 °F 29.2 °F 28.4 °F 75% 30.06 in 10.0 mi West 8.1 mph - N/A   Overcast
1:58 PM 37.4 °F 32.8 °F 26.6 °F 65% 30.05 in 10.0 mi West 5.8 mph - N/A   Overcast
2:58 PM 37.4 °F 29.8 °F 23.0 °F 56% 30.05 in 10.0 mi NW 11.5 mph - N/A   Overcast
3:50 PM 37.4 °F 29.8 °F 21.2 °F 52% 30.07 in 10.0 mi WSW 11.5 mph - N/A   Overcast
4:55 PM 35.6 °F 26.2 °F 19.4 °F 52% 30.07 in 10.0 mi WSW 15.0 mph - N/A   Overcast
5:50 PM 33.8 °F 24.3 °F 21.2 °F 60% 30.09 in 10.0 mi NW 13.8 mph - N/A   Overcast
6:35 PM 31.8 °F 23.3 °F 18.9 °F 59% 30.09 in 10.0 mi WNW 10.4 mph - N/A   Clear
6:55 PM 30.2 °F 22.6 °F 17.6 °F 60% 30.09 in 10.0 mi WNW 8.1 mph - N/A   Overcast
7:15 PM 29.8 °F 21.5 °F 19.4 °F 65% 30.11 in 10.0 mi WNW 9.2 mph - N/A   Clear
7:35 PM 29.7 °F 20.7 °F 19.4 °F 66% 30.11 in 10.0 mi WNW 10.4 mph - N/A   Clear
7:55 PM 28.9 °F 20.4 °F 19.2 °F 67% 30.11 in 10.0 mi WNW 9.2 mph - N/A   Clear
8:15 PM 28.2 °F 21.0 °F 19.9 °F 71% 30.12 in 10.0 mi West 6.9 mph - N/A   Clear
8:35 PM 28.4 °F 20.4 °F 20.3 °F 72% 30.12 in 10.0 mi WNW 8.1 mph - N/A   Clear
8:55 PM 28.2 °F 19.5 °F 16.2 °F 61% 30.12 in 10.0 mi WNW 9.2 mph - N/A   Clear
9:10 PM 27.7 °F 19.6 °F 16.0 °F 62% 30.12 in 10.0 mi WNW 8.1 mph - N/A   Clear
9:35 PM 27.3 °F 19.1 °F 15.4 °F 61% 30.14 in 10.0 mi WNW 8.1 mph - N/A   Clear
9:55 PM 27.1 °F 18.9 °F 16.3 °F 64% 30.14 in 10.0 mi WNW 8.1 mph - N/A   Clear
10:15 PM 26.6 °F 19.1 °F 16.9 °F 67% 30.14 in 10.0 mi WNW 6.9 mph - N/A   Clear
10:35 PM 26.1 °F 19.4 °F 16.2 °F 66% 30.13 in 10.0 mi WNW 5.8 mph - N/A   Clear
10:55 PM 26.1 °F 19.4 °F 15.8 °F 65% 30.13 in 10.0 mi WNW 5.8 mph - N/A   Clear
11:15 PM 25.3 °F 19.7 °F 15.8 °F 67% 30.13 in 10.0 mi West 4.6 mph - N/A   Clear
11:35 PM 25.2 °F 19.5 °F 15.8 °F 68% 30.14 in 10.0 mi West 4.6 mph - N/A   Clear
11:55 PM 24.6 °F 18.8 °F 15.6 °F 69% 30.14 in 10.0 mi West 4.6 mph - N/A   Clear